Retour au catalogue

STARLINK-3711

ActifCommunicationsVLEO
NORAD 52131·PAYLOAD·🇺🇸 United States

Lancé Mar 19, 2022 depuis Cape Canaveral Space Force Station

Loading…

Prochains Passages (prochaines 24 heures)

TLE

FraisSource: CelesTrak SupGP

Époque: Sep 15, 2026, 02:18 UTC

1 52131C 22029AV  26258.09631944  .00023081  00000+0  98361-3 0  2587
2 52131  53.2236 284.5823 0003940  63.5151 310.7142 15.22412200    12

Suivez STARLINK-3711 en temps réel avec AllMySat

Download on the App Store